Location: Unspecified
(54.1780°N, 0.0000°E)
Time: 02:40:24
(UTC+00:00)

Vanguard 2 - Pass Details

Date: 20 June 2019
Orbit: 553 x 2938 km, 32.9° (Epoch: 17 August)

Event Time Altitude Azimuth Distance (km) Brightness Sun altitude
Rises 11:30:59 0° 239° (WSW) 4,097 11.4 58.7°
Reaches altitude 10° 11:34:16 10° 224° (SW) 3,477 11.3 58.8°
Maximum altitude 11:40:41 21° 179° (S) 3,307 11.7 59.0°
Drops below altitude 10° 11:49:20 10° 138° (SE) 4,862 12.1 59.2°
Sets 11:55:11 0° 126° (SE) 6,263 12.4 59.2°
